Location: Bard
(39.9279°N, 78.6592°W)
Time: 08:35:22
(UTC+00:00)

ARIANE 6 FM1 Upper Stage - Pass Details

Date: 18 December 2025
Orbit: 522 x 610 km, 62.0° (Epoch: 14 January)

Event Time Altitude Azimuth Distance (km) Brightness Sun altitude
Exits shadow 11:23:53 19° 277° (W) 1,323 3.9 -12.5°
Maximum altitude 11:25:39 25° 315° (NW) 1,090 3.6 -12.2°
Drops below altitude 10° 11:29:00 10° 13° (NNE) 1,772 5.1 -11.6°
Sets 11:31:28 0° 26° (NNE) 2,659 6.2 -11.1°
